SCP
0 0 0 0 0 0 0 0 0 0 0 0 0 0 0 0 0 0 0 0 0 0 -0 0 0 0 0 0 0 0 0 0 0 0 0 0 0 0 0 0 0 0 0 0 0
0 0 0 0 0 0 0 0 0 0 0 0 0 0 0 0 0 0 0 0 -0 -0 0 0 0 0 0 0 0 0 0 0 0 0 0 0 0 0 0 0 0 0 0 0 0
0 0 0 0 0 0 0 0 0 0 0 0 0 0 0 0 0 0 0 0 0 0 0 0 0 0 0 0 0 0 0 0 0 0 0 0 0 0 0 0 0 0 0 0 0
0 0 0 0 0 0 0 0 0 0 0 0 0 0 0 0 0 0 0 0 0 0 0 0 0 0 0 0 0 0 0 0 0 0 0 0 0 0 0 0 0 0 0 0 0
0 0 0 0 0 0 0 0 0 0 0 0 0 0 0 0 0 0 0 0 0 0 0 0 0 0 0 0 -0 -0 0 0 0 0 0 0 0 0 0 0 0 0 0 0 0
0 0 0 0 0 0 0 0 0 0 0 0 0 0 0 0 0 0 0 0 0 0 0 0 0 0 -0 0 0 -0 -0 -0 0 0 0 0 0 0 0 0 0 0 0 0 0
0 0 0 0 0 0 0 0 0 0 0 0 0 0 0 0 0 0 0 0 0 0 0 0 0 0 0 -0 0 -0 -0 -0 0 0 0 0 0 0 0 0 0 0 0 0 0
0 0 0 0 0 0 0 0 0 0 0 0 0 0 0 0 0 0 0 0 0 0 0 0 0 -0 0 -0 0 0 -0 -0 -0 0 0 0 0 0 0 0 0 0 0 0 0
-0 -0 0 0 0 0 0 0 0 0 0 0 0 0 0 0 0 0 0 0 0 0 0 0 0 0 0 0 0 0 0 -0 0 0 -0 0 0 0 0 0 0 0 0 0 0
0 -0 -0 0 0 0 0 0 0 0 0 0 0 0 0 0 0 0 0 0 0 0 0 0 0 0 0 0 -0 0 0 0 -0 0 0 0 -0 0 0 0 0 0 0 0 0
0 0 -0 0 0 0 0 0 0 0 0 0 0 0 0 0 0 0 0 0 0 0 0 0 0 0 0 0 0 0 0 -0 -0 -0 0 0 0 0 0 0 0 0 0 0 0
0 0 0 0 0 0 0 0 0 0 0 0 0 0 0 0 0 0 0 0 0 0 0 0 0 0 0 0 0 0 0 -0 -0 -0 -0 0 0 0 -0 0 0 0 0 0 0
0 0 0 0 0 0 0 0 0 0 0 0 0 0 0 0 0 0 0 0 0 0 0 0 0 0 0 0 0 0 0 -0 -0 0 0 -0 0 -0 -0 -0 0 0 0 0 0
0 0 0 0 0 0 0 0 0 0 0 0 0 0 0 0 0 0 0 0 0 0 0 0 0 0 0 0 0 0 0 0 0 0 -0 0 -0 0 -0 -0 0 0 0 0 0
0 0 0 0 0 0 0 0 0 0 0 0 0 0 0 0 0 0 0 0 0 0 0 0 0 0 0 0 0 0 0 0 0 0 -0 0 0 -0 -0 -0 0 0 0 0 0
0 0 0 0 0 0 0 0 0 0 0 0 0 0 0 0 0 0 0 0 0 0 0 0 0 0 0 0 0 0 0 0 0 0 -0 -0 -0 0 0 0 0 -0 0 0 0
0 0 0 0 0 0 0 0 0 0 0 0 0 0 0 0 0 0 0 0 0 0 0 0 0 0 0 0 0 0 0 0 -0 -0 -0 -0 -0 -0 0 -0 0 0 0 0 -0
0 0 0 0 0 0 0 0 0 0 0 0 0 0 0 0 0 0 0 0 0 0 0 0 0 0 0 0 0 0 0 0 -0 -0 -0 -0 -0 -0 -0 -0 0 0 0 0 0
0 0 0 0 0 0 0 0 0 0 0 0 0 0 0 0 0 0 0 0 0 0 0 0 0 0 0 0 0 0 0 0 0 0 -0 -0 -0 -0 -0 0 0 0 -0 -0 -0
0 0 0 0 0 0 0 0 0 0 0 0 0 0 0 0 0 0 0 0 0 0 0 0 0 0 0 0 0 0 0 0 0 -0 -0 -0 -0 -0 0 0 -0 0 0 -0 -0
0 0 0 0 0 0 0 0 0 0 0 0 0 0 0 0 0 0 0 0 0 0 0 0 0 0 0 0 0 0 0 0 0 0 -0 -0 -0 -0 -0 0 -0 -0 -0 -0 -0
0 0 0 0 0 0 0 0 0 0 0 0 0 0 0 0 0 0 0 0 0 0 0 0 0 0 0 0 0 0 0 0 0 0 0 0 -0 0 0 -0 0 0 -0 -0 -0
0 0 0 0 0 0 0 0 0 0 0 0 0 0 0 0 0 0 0 0 0 0 0 0 0 0 0 0 0 0 0 0 0 0 0 0 0 0 0 -0 0 0 0 -0 -0
0 0 0 0 0 0 0 0 0 0 0 0 0 0 0 0 0 0 0 0 0 0 0 0 0 0 0 0 0 0 0 0 0 0 0 0 0 0 -0 0 0 0 -0 -0 -0
0 0 0 0 0 0 0 0 0 0 0 0 0 0 0 0 0 0 0 0 0 0 0 0 0 0 0 0 0 0 0 0 0 0 0 0 0 0 0 0 -0 0 0 0 -0
0 0 0 0 0 0 0 0 0 0 0 0 0 0 0 0 0 0 0 0 0 0 0 0 0 0 0 0 0 0 0 0 0 0 0 0 0 0 0 0 0 0 0 0 -0
0 0 0 0 0 0 0 0 0 0 0 0 0 0 0 0 0 0 0 0 0 0 0 0 0 0 0 0 0 0 0 0 0 0 0 0 0 0 0 0 0 0 0 0 -0
Wind_Speed_500mb
22 17 14 13 12 10 9 10 9 7 5 3 3 2 5 7 14 6 8 6 6 6 7 11 15 18 15 12 11 6 4 8 8 10 12 7 8 4 6 9 9 7 20 33 48
23 21 18 16 13 12 10 7 8 7 5 3 2 2 5 5 6 11 7 9 5 6 8 12 17 16 10 8 9 7 4 6 5 8 10 10 5 2 5 6 10 22 27 37 40
25 22 19 19 16 13 11 10 6 7 6 4 2 1 2 5 5 4 8 7 4 6 9 14 18 11 12 10 11 9 7 14 7 9 10 10 6 2 10 4 13 38 46 42 38
25 24 21 19 19 16 13 11 9 6 7 5 4 3 1 4 3 2 6 5 3 6 9 16 13 8 8 9 6 14 9 8 15 11 7 7 6 5 7 7 20 30 36 35 38
22 22 22 20 20 18 15 13 11 9 7 6 5 4 4 4 5 3 5 7 2 7 10 16 14 12 10 16 21 23 16 13 14 11 6 5 7 5 9 11 23 27 26 30 34
27 23 19 22 22 19 17 15 13 11 8 7 5 4 6 6 5 4 6 9 7 10 12 15 13 29 25 9 6 18 23 20 8 6 3 5 7 6 3 14 20 26 28 31 33
28 29 22 18 23 22 18 17 14 12 11 8 6 4 3 8 10 9 9 10 18 24 33 38 33 7 18 22 20 27 18 10 6 1 2 4 8 10 9 15 17 26 30 33 34
29 34 29 19 20 22 19 17 16 14 13 10 7 4 5 11 12 13 13 18 22 23 28 29 28 32 13 31 10 8 5 8 6 4 5 5 3 8 9 15 18 26 30 36 38
35 36 32 25 21 20 19 17 16 15 12 11 9 6 5 13 12 15 17 20 21 20 23 20 14 16 14 12 9 4 5 5 7 3 4 7 5 6 8 14 16 22 29 33 40
40 47 35 27 22 20 16 17 14 14 11 10 11 5 11 12 17 18 20 24 11 19 13 6 10 7 6 6 6 12 9 5 4 2 6 9 15 5 12 12 13 20 24 30 36
40 33 39 31 22 20 18 11 8 10 19 9 9 6 16 17 20 18 23 17 16 5 3 5 6 8 9 2 5 12 8 7 3 2 8 8 17 15 13 11 10 14 22 28 36
41 31 28 35 24 25 26 19 15 6 5 17 13 11 17 21 11 19 24 10 8 7 5 5 8 10 13 5 10 9 9 4 3 4 5 8 23 16 12 9 7 12 19 25 33
42 43 33 28 27 28 32 32 13 10 4 7 17 13 14 21 9 23 25 13 5 8 2 3 13 18 6 8 10 6 3 7 1 1 3 16 8 7 5 10 11 9 10 16 25
58 53 48 45 27 22 34 30 14 7 5 9 11 12 19 17 6 21 25 12 5 8 12 11 13 10 11 5 3 6 4 10 6 4 4 4 4 8 6 13 15 11 5 8 16
59 63 67 62 44 45 28 31 21 10 6 11 9 13 19 12 17 11 19 9 12 10 8 7 19 14 6 3 2 7 8 7 3 2 6 5 7 4 2 6 11 14 10 3 11
66 71 74 68 56 43 41 34 28 5 19 8 9 12 14 5 7 14 9 11 19 9 19 8 2 2 5 7 5 20 10 6 3 1 4 4 5 7 9 7 8 9 11 4 7
80 76 81 72 66 46 54 47 5 12 4 10 10 13 10 11 10 10 14 15 13 11 7 6 5 3 6 13 8 4 8 3 4 4 5 4 6 9 11 11 5 10 9 5 7
75 68 81 85 63 64 67 6 14 5 12 3 6 15 15 13 7 11 18 19 13 4 12 16 11 20 10 5 7 14 5 5 7 6 1 3 10 1 4 4 10 4 5 6 3
66 91 100 94 75 83 64 17 19 13 15 24 9 10 11 7 7 13 21 16 21 26 11 13 5 4 1 3 4 12 12 3 10 2 4 5 9 11 8 14 14 22 25 25 22
83 82 77 94 80 75 26 26 9 8 18 9 18 13 19 20 18 20 24 13 13 24 6 15 12 0 4 4 5 5 6 5 2 8 9 5 7 7 15 26 23 26 31 25 23
93 38 40 85 91 53 13 15 11 18 17 17 14 9 11 15 14 16 19 3 10 20 7 13 7 7 6 17 19 9 7 4 1 2 5 2 6 7 16 23 29 36 37 33 32
64 10 60 90 23 15 12 14 14 14 13 6 7 6 16 18 22 18 22 6 25 35 20 11 11 10 6 2 4 3 7 13 7 10 1 2 6 4 7 10 11 21 30 34 34
44 24 69 104 15 20 3 8 9 12 13 15 11 6 4 17 7 14 13 2 20 19 21 20 6 11 4 3 1 13 14 9 4 2 12 7 4 1 10 13 15 15 18 34 39
23 11 21 44 13 26 17 16 17 15 11 12 12 13 7 5 3 11 11 3 13 8 0 10 7 9 15 7 12 15 21 29 14 7 14 13 3 13 20 22 25 27 26 31 42
21 9 29 24 29 31 31 25 32 15 7 14 5 12 13 8 8 8 5 5 2 8 3 5 10 5 4 4 2 8 23 39 32 12 16 6 21 17 28 31 38 35 33 34 42
22 12 29 25 54 25 35 30 49 24 28 14 9 23 12 10 8 16 15 9 10 8 12 3 6 4 2 5 4 6 14 33 29 17 24 11 17 21 4 19 29 38 42 46 46
36 28 26 40 34 29 31 43 54 43 16 34 30 17 16 10 5 7 11 10 8 19 14 13 14 8 7 3 1 11 25 31 24 25 25 22 18 13 14 22 35 44 51 48 49
Wind_Direction_500mb
264 258 260 269 283 295 307 316 320 330 338 358 10 113 150 99 69 109 63 73 98 110 117 129 130 140 136 89 74 90 122 127 136 160 122 158 188 185 273 276 303 277 305 304 317
262 265 263 259 266 280 288 293 303 309 314 323 353 117 164 160 122 72 61 51 72 116 122 144 147 144 83 67 30 37 77 99 86 102 137 151 180 205 289 278 315 305 317 319 324
265 262 262 263 263 263 271 275 277 288 290 294 270 158 143 166 151 39 36 38 53 125 145 140 149 121 78 57 30 41 92 135 132 134 141 143 180 180 324 266 328 320 322 328 333
269 266 260 256 259 262 261 261 263 266 274 275 269 234 164 154 213 80 29 32 80 136 159 152 149 84 75 84 70 105 104 139 150 155 150 174 144 214 251 315 318 319 316 323 332
282 276 266 255 253 260 259 258 256 254 258 259 243 232 192 134 141 110 42 38 79 150 150 159 145 118 108 111 100 95 134 122 132 137 130 149 191 247 257 305 327 332 326 328 335
285 286 269 263 254 256 258 255 254 253 247 248 233 202 180 191 167 136 64 59 75 175 175 157 142 118 97 76 47 121 127 120 139 149 159 229 206 267 255 320 336 340 336 338 341
278 284 278 261 259 255 252 255 250 251 248 230 217 191 178 179 173 144 100 110 105 106 114 122 126 102 115 108 111 119 106 117 87 357 239 247 222 237 297 327 341 344 343 345 351
274 283 279 263 247 254 251 248 252 244 244 231 230 211 173 162 158 150 128 115 111 115 120 116 111 104 81 122 86 107 140 178 126 30 174 257 229 224 299 319 353 348 347 351 356
265 278 279 275 251 238 250 246 248 247 236 233 228 198 173 169 163 156 151 138 128 124 118 109 103 89 117 145 116 73 178 208 156 79 262 238 265 185 285 305 351 344 345 352 355
243 261 272 271 254 236 231 240 241 241 226 226 217 198 193 180 161 158 156 151 137 131 113 103 81 114 133 220 190 169 180 190 196 173 244 244 262 262 263 289 340 341 342 349 354
240 249 266 269 247 229 215 200 223 238 211 208 179 164 152 161 153 160 163 163 147 134 151 27 144 181 170 321 80 106 116 117 190 52 297 274 288 283 265 281 310 335 343 350 353
237 230 254 270 255 214 207 197 224 200 192 214 208 192 168 171 132 159 167 175 176 148 154 156 121 123 110 120 111 99 128 114 287 282 307 338 295 274 251 260 275 314 339 346 353
227 225 238 240 253 219 212 213 229 226 252 212 200 194 179 181 163 164 172 161 124 131 181 179 119 141 131 147 129 69 168 161 79 300 165 310 265 272 195 245 250 256 319 341 354
228 225 226 223 231 235 226 210 196 184 38 191 200 196 184 167 178 168 171 155 92 136 117 88 147 144 142 167 258 154 106 116 128 213 253 317 283 234 224 275 235 222 214 323 350
229 230 222 228 218 222 241 202 183 174 243 112 154 163 167 172 132 160 164 128 147 135 181 133 164 152 167 89 188 111 132 96 102 119 293 178 263 152 336 248 199 192 180 264 2
235 229 222 215 215 217 192 182 166 60 238 154 131 165 152 145 128 133 139 116 121 92 58 91 94 156 89 79 76 138 116 89 97 303 261 77 317 171 200 192 180 185 181 175 28
232 232 221 224 214 174 165 166 90 217 40 183 176 176 169 148 143 176 166 161 159 127 162 128 157 134 154 115 109 210 180 130 217 213 253 81 261 269 212 198 176 173 168 131 52
240 237 223 223 202 163 163 118 204 206 179 120 127 135 179 151 179 158 160 186 222 199 139 162 198 184 169 236 188 184 261 233 218 206 101 114 234 188 207 178 199 194 150 168 111
240 226 213 206 185 166 159 188 212 169 158 148 133 143 195 199 168 169 200 205 201 202 155 154 112 75 77 136 239 157 216 47 105 69 276 197 253 234 215 230 206 209 204 192 179
204 185 196 195 174 167 152 211 220 195 126 166 185 186 174 174 171 192 178 195 195 191 255 171 113 261 116 165 79 254 135 146 235 168 237 206 265 257 207 224 208 216 219 211 196
195 181 193 174 159 161 191 205 195 211 149 165 181 142 187 174 185 197 200 211 180 164 172 148 117 150 166 210 179 156 192 219 317 272 223 231 226 202 200 199 203 206 210 202 202
182 145 172 166 151 210 185 192 186 161 194 129 122 106 176 165 178 210 213 263 167 152 170 193 111 145 188 41 350 301 210 198 224 187 211 320 266 148 197 199 225 210 207 205 201
158 121 159 163 160 192 130 183 186 152 183 171 144 175 160 174 166 206 202 12 172 171 157 182 160 117 117 194 230 221 195 198 100 116 190 176 198 168 208 200 207 233 223 211 204
157 142 158 191 203 183 166 187 189 205 178 163 122 122 132 159 77 189 178 148 203 204 317 161 146 178 191 145 136 193 188 190 196 180 160 228 259 200 218 215 210 215 215 217 211
191 199 180 181 216 192 170 173 182 170 240 175 80 170 158 141 136 200 159 125 133 208 180 181 175 119 78 54 183 197 184 186 199 218 197 193 212 216 204 207 204 207 203 209 212
180 161 191 189 177 175 180 189 193 182 168 202 159 165 150 156 175 180 155 190 185 169 181 182 166 136 74 349 6 245 199 201 216 226 262 260 268 230 187 189 201 203 201 205 211
214 204 182 164 175 173 194 185 202 194 204 211 165 134 150 131 81 2 197 139 160 165 169 157 144 162 210 355 228 272 213 190 207 212 213 219 231 161 188 209 203 201 206 222 227
Wind_Speed_850mb
22 17 14 13 12 10 9 10 9 7 5 3 3 2 5 7 14 6 8 6 6 6 7 11 15 18 15 12 11 6 4 8 8 10 12 7 8 4 6 9 9 7 20 33 48
23 21 18 16 13 12 10 7 8 7 5 3 2 2 5 5 6 11 7 9 5 6 8 12 17 16 10 8 9 7 4 6 5 8 10 10 5 2 5 6 10 22 27 37 40
25 22 19 19 16 13 11 10 6 7 6 4 2 1 2 5 5 4 8 7 4 6 9 14 18 11 12 10 11 9 7 14 7 9 10 10 6 2 10 4 13 38 46 42 38
25 24 21 19 19 16 13 11 9 6 7 5 4 3 1 4 3 2 6 5 3 6 9 16 13 8 8 9 6 14 9 8 15 11 7 7 6 5 7 7 20 30 36 35 38
22 22 22 20 20 18 15 13 11 9 7 6 5 4 4 4 5 3 5 7 2 7 10 16 14 12 10 16 21 23 16 13 14 11 6 5 7 5 9 11 23 27 26 30 34
27 23 19 22 22 19 17 15 13 11 8 7 5 4 6 6 5 4 6 9 7 10 12 15 13 29 25 9 6 18 23 20 8 6 3 5 7 6 3 14 20 26 28 31 33
28 29 22 18 23 22 18 17 14 12 11 8 6 4 3 8 10 9 9 10 18 24 33 38 33 7 18 22 20 27 18 10 6 1 2 4 8 10 9 15 17 26 30 33 34
29 34 29 19 20 22 19 17 16 14 13 10 7 4 5 11 12 13 13 18 22 23 28 29 28 32 13 31 10 8 5 8 6 4 5 5 3 8 9 15 18 26 30 36 38
35 36 32 25 21 20 19 17 16 15 12 11 9 6 5 13 12 15 17 20 21 20 23 20 14 16 14 12 9 4 5 5 7 3 4 7 5 6 8 14 16 22 29 33 40
40 47 35 27 22 20 16 17 14 14 11 10 11 5 11 12 17 18 20 24 11 19 13 6 10 7 6 6 6 12 9 5 4 2 6 9 15 5 12 12 13 20 24 30 36
40 33 39 31 22 20 18 11 8 10 19 9 9 6 16 17 20 18 23 17 16 5 3 5 6 8 9 2 5 12 8 7 3 2 8 8 17 15 13 11 10 14 22 28 36
41 31 28 35 24 25 26 19 15 6 5 17 13 11 17 21 11 19 24 10 8 7 5 5 8 10 13 5 10 9 9 4 3 4 5 8 23 16 12 9 7 12 19 25 33
42 43 33 28 27 28 32 32 13 10 4 7 17 13 14 21 9 23 25 13 5 8 2 3 13 18 6 8 10 6 3 7 1 1 3 16 8 7 5 10 11 9 10 16 25
58 53 48 45 27 22 34 30 14 7 5 9 11 12 19 17 6 21 25 12 5 8 12 11 13 10 11 5 3 6 4 10 6 4 4 4 4 8 6 13 15 11 5 8 16
59 63 67 62 44 45 28 31 21 10 6 11 9 13 19 12 17 11 19 9 12 10 8 7 19 14 6 3 2 7 8 7 3 2 6 5 7 4 2 6 11 14 10 3 11
66 71 74 68 56 43 41 34 28 5 19 8 9 12 14 5 7 14 9 11 19 9 19 8 2 2 5 7 5 20 10 6 3 1 4 4 5 7 9 7 8 9 11 4 7
80 76 81 72 66 46 54 47 5 12 4 10 10 13 10 11 10 10 14 15 13 11 7 6 5 3 6 13 8 4 8 3 4 4 5 4 6 9 11 11 5 10 9 5 7
75 68 81 85 63 64 67 6 14 5 12 3 6 15 15 13 7 11 18 19 13 4 12 16 11 20 10 5 7 14 5 5 7 6 1 3 10 1 4 4 10 4 5 6 3
66 91 100 94 75 83 64 17 19 13 15 24 9 10 11 7 7 13 21 16 21 26 11 13 5 4 1 3 4 12 12 3 10 2 4 5 9 11 8 14 14 22 25 25 22
83 82 77 94 80 75 26 26 9 8 18 9 18 13 19 20 18 20 24 13 13 24 6 15 12 0 4 4 5 5 6 5 2 8 9 5 7 7 15 26 23 26 31 25 23
93 38 40 85 91 53 13 15 11 18 17 17 14 9 11 15 14 16 19 3 10 20 7 13 7 7 6 17 19 9 7 4 1 2 5 2 6 7 16 23 29 36 37 33 32
64 10 60 90 23 15 12 14 14 14 13 6 7 6 16 18 22 18 22 6 25 35 20 11 11 10 6 2 4 3 7 13 7 10 1 2 6 4 7 10 11 21 30 34 34
44 24 69 104 15 20 3 8 9 12 13 15 11 6 4 17 7 14 13 2 20 19 21 20 6 11 4 3 1 13 14 9 4 2 12 7 4 1 10 13 15 15 18 34 39
23 11 21 44 13 26 17 16 17 15 11 12 12 13 7 5 3 11 11 3 13 8 0 10 7 9 15 7 12 15 21 29 14 7 14 13 3 13 20 22 25 27 26 31 42
21 9 29 24 29 31 31 25 32 15 7 14 5 12 13 8 8 8 5 5 2 8 3 5 10 5 4 4 2 8 23 39 32 12 16 6 21 17 28 31 38 35 33 34 42
22 12 29 25 54 25 35 30 49 24 28 14 9 23 12 10 8 16 15 9 10 8 12 3 6 4 2 5 4 6 14 33 29 17 24 11 17 21 4 19 29 38 42 46 46
36 28 26 40 34 29 31 43 54 43 16 34 30 17 16 10 5 7 11 10 8 19 14 13 14 8 7 3 1 11 25 31 24 25 25 22 18 13 14 22 35 44 51 48 49
Wind_Direction_850mb
264 258 260 269 283 295 307 316 320 330 338 358 10 113 150 99 69 109 63 73 98 110 117 129 130 140 136 89 74 90 122 127 136 160 122 158 188 185 273 276 303 277 305 304 317
262 265 263 259 266 280 288 293 303 309 314 323 353 117 164 160 122 72 61 51 72 116 122 144 147 144 83 67 30 37 77 99 86 102 137 151 180 205 289 278 315 305 317 319 324
265 262 262 263 263 263 271 275 277 288 290 294 270 158 143 166 151 39 36 38 53 125 145 140 149 121 78 57 30 41 92 135 132 134 141 143 180 180 324 266 328 320 322 328 333
269 266 260 256 259 262 261 261 263 266 274 275 269 234 164 154 213 80 29 32 80 136 159 152 149 84 75 84 70 105 104 139 150 155 150 174 144 214 251 315 318 319 316 323 332
282 276 266 255 253 260 259 258 256 254 258 259 243 232 192 134 141 110 42 38 79 150 150 159 145 118 108 111 100 95 134 122 132 137 130 149 191 247 257 305 327 332 326 328 335
285 286 269 263 254 256 258 255 254 253 247 248 233 202 180 191 167 136 64 59 75 175 175 157 142 118 97 76 47 121 127 120 139 149 159 229 206 267 255 320 336 340 336 338 341
278 284 278 261 259 255 252 255 250 251 248 230 217 191 178 179 173 144 100 110 105 106 114 122 126 102 115 108 111 119 106 117 87 357 239 247 222 237 297 327 341 344 343 345 351
274 283 279 263 247 254 251 248 252 244 244 231 230 211 173 162 158 150 128 115 111 115 120 116 111 104 81 122 86 107 140 178 126 30 174 257 229 224 299 319 353 348 347 351 356
265 278 279 275 251 238 250 246 248 247 236 233 228 198 173 169 163 156 151 138 128 124 118 109 103 89 117 145 116 73 178 208 156 79 262 238 265 185 285 305 351 344 345 352 355
243 261 272 271 254 236 231 240 241 241 226 226 217 198 193 180 161 158 156 151 137 131 113 103 81 114 133 220 190 169 180 190 196 173 244 244 262 262 263 289 340 341 342 349 354
240 249 266 269 247 229 215 200 223 238 211 208 179 164 152 161 153 160 163 163 147 134 151 27 144 181 170 321 80 106 116 117 190 52 297 274 288 283 265 281 310 335 343 350 353
237 230 254 270 255 214 207 197 224 200 192 214 208 192 168 171 132 159 167 175 176 148 154 156 121 123 110 120 111 99 128 114 287 282 307 338 295 274 251 260 275 314 339 346 353
227 225 238 240 253 219 212 213 229 226 252 212 200 194 179 181 163 164 172 161 124 131 181 179 119 141 131 147 129 69 168 161 79 300 165 310 265 272 195 245 250 256 319 341 354
228 225 226 223 231 235 226 210 196 184 38 191 200 196 184 167 178 168 171 155 92 136 117 88 147 144 142 167 258 154 106 116 128 213 253 317 283 234 224 275 235 222 214 323 350
229 230 222 228 218 222 241 202 183 174 243 112 154 163 167 172 132 160 164 128 147 135 181 133 164 152 167 89 188 111 132 96 102 119 293 178 263 152 336 248 199 192 180 264 2
235 229 222 215 215 217 192 182 166 60 238 154 131 165 152 145 128 133 139 116 121 92 58 91 94 156 89 79 76 138 116 89 97 303 261 77 317 171 200 192 180 185 181 175 28
232 232 221 224 214 174 165 166 90 217 40 183 176 176 169 148 143 176 166 161 159 127 162 128 157 134 154 115 109 210 180 130 217 213 253 81 261 269 212 198 176 173 168 131 52
240 237 223 223 202 163 163 118 204 206 179 120 127 135 179 151 179 158 160 186 222 199 139 162 198 184 169 236 188 184 261 233 218 206 101 114 234 188 207 178 199 194 150 168 111
240 226 213 206 185 166 159 188 212 169 158 148 133 143 195 199 168 169 200 205 201 202 155 154 112 75 77 136 239 157 216 47 105 69 276 197 253 234 215 230 206 209 204 192 179
204 185 196 195 174 167 152 211 220 195 126 166 185 186 174 174 171 192 178 195 195 191 255 171 113 261 116 165 79 254 135 146 235 168 237 206 265 257 207 224 208 216 219 211 196
195 181 193 174 159 161 191 205 195 211 149 165 181 142 187 174 185 197 200 211 180 164 172 148 117 150 166 210 179 156 192 219 317 272 223 231 226 202 200 199 203 206 210 202 202
182 145 172 166 151 210 185 192 186 161 194 129 122 106 176 165 178 210 213 263 167 152 170 193 111 145 188 41 350 301 210 198 224 187 211 320 266 148 197 199 225 210 207 205 201
158 121 159 163 160 192 130 183 186 152 183 171 144 175 160 174 166 206 202 12 172 171 157 182 160 117 117 194 230 221 195 198 100 116 190 176 198 168 208 200 207 233 223 211 204
157 142 158 191 203 183 166 187 189 205 178 163 122 122 132 159 77 189 178 148 203 204 317 161 146 178 191 145 136 193 188 190 196 180 160 228 259 200 218 215 210 215 215 217 211
191 199 180 181 216 192 170 173 182 170 240 175 80 170 158 141 136 200 159 125 133 208 180 181 175 119 78 54 183 197 184 186 199 218 197 193 212 216 204 207 204 207 203 209 212
180 161 191 189 177 175 180 189 193 182 168 202 159 165 150 156 175 180 155 190 185 169 181 182 166 136 74 349 6 245 199 201 216 226 262 260 268 230 187 189 201 203 201 205 211
214 204 182 164 175 173 194 185 202 194 204 211 165 134 150 131 81 2 197 139 160 165 169 157 144 162 210 355 228 272 213 190 207 212 213 219 231 161 188 209 203 201 206 222 227